Location: *
(51.2167°N, 10.0667°E)
Time: 15:38:26
(UTC+00:00)

CZ-4 R/B - Pass Details

Date: 12 December 2019
Orbit: 532 x 598 km, 97.7° (Epoch: 19 January)

Event Time Altitude Azimuth Distance (km) Brightness Sun altitude
Rises 17:07:26 0° 153° (SSE) 2,698 4.7 -16.9°
Reaches altitude 10° 17:09:35 10° 149° (SSE) 1,803 3.8 -17.2°
Maximum altitude 17:13:22 56° 72° (ENE) 648 1.3 -17.8°
Drops below altitude 10° 17:17:11 10° 354° (N) 1,800 3.9 -18.4°
Sets 17:19:19 0° 350° (N) 2,694 4.8 -18.7°
